FENGYUN 1C DEB

Satellite information

Favourite Embed

Satellite Type and Status

DEBRISIN ORBIT

Key statistics

Satellite FENGYUN 1C DEB at a glance.

Uptime

9554

Days in orbit

Revolutions

≈ 14.5

Per day

Orbit

SSO

Sun Synchronous Orbit

Inclination

99.0

Latest

Satellite identification and parameters

Extended collection of information and parameters for FENGYUN 1C DEB.

Object identification

Identified? True

Debris? True

Object name: FENGYUN 1C DEB

International designator: 1999-025DPB

Object number (NORAD): 35195

Object ID (CCSDS): 35195

Country: PEOPLES REPUBLIC OF CHINA (PRC)

Current information (Y/N): Y

RCS size: SMALL

Orbital parameters

Period: 99.015 minutes

Inclination: 98.9877 deg

SMA: 7089.717 km

Apoapsis: 786.977 km

Periapsis: 636.187 km

RAAN: 268.257 deg

Eccentricy: 0.0106344

Argument of periapsis: 194.1261 deg

Mean anomaly: 165.6953 deg

Mean motion: 14.54318214 rev/day

Mean motion (dot): 0.00003367 rev/day2

B* drag term: 0.00074822 1/REarth

Two-line elements (TLE)

Creation date: July 5, 2025, 5:45 p.m.

Reference frame: TEME

Reference center: EARTH

Epoch: July 4, 2025, 10:58 p.m. UTC

TLE line 0: 0 FENGYUN 1C DEB

TLE line 1: 1 35195U 99025DPB 25185.95743826 .00003367 00000-0 74822-3 0 9998

TLE line 2: 2 35195 98.9877 268.2570 0106344 194.1261 165.6953 14.54318214885880

Live tracking on map

Real-time ground track for satellite FENGYUN 1C DEB.

In-orbit conjunctions

A list of the most updated potential collisions computed for object FENGYUN 1C DEB.

Target Orbit TCA Probability of collision Miss distance Type
REX 2 SSO 2024-08-11 19:25:32 0.0001247411 911.0 (m) PAYLOAD

Associated space launch

Chinese polar orbiting meteorological satellite

FENGYUN 1C DEB was lifted into orbit during the mission ‘Long March 4B | Feng Yun 1C’, on board a Long March 4B space rocket.

The launch took place on May 10, 1999, 1:33 a.m. from Launch Complex 7.

For more information about the launch, click the button.

Launch to space Long March 4B | Feng Yun 1C
Long March 4B | Feng Yun 1C

Agency: N/A

Status: Launch Successful

Launch date: May 10, 1999, 1:33 a.m. UTC

Rocket: Long March 4B

Launch pad: Launch Complex 7

Location: Taiyuan Satellite Launch Center, People's Republic of China

...

Latest news about this satellite

There are no fresh news available about this satellite. Check back as we update our databases every day.


Newsletter sign-up

Weekly statistics, charts and insights to help you stay on top of the space industry.